Terminal Aerodrome Forecast
Issued by NWS Sterling, VA

Current Version | Previous Version | Text Only | Print | Product List | Glossary Off
Versions: 1 2 3 4 5 6 7 8 9 10 11 12 13 14 15 16 17 18 19 20

000
FTUS41 KLWX 261700
TAFDCA
TAF
KDCA 261739Z 2618/2718 09005KT P6SM SCT050 SCT250
     FM270000 15004KT P6SM SKC
     FM270800 00000KT P6SM SKC
     FM271500 16004KT P6SM FEW050=

USA.gov is the U.S. government's official web portal to all federal, state and local government web resources and services.